Messages - map view · info · telemetry · weather · raw · status · beacons · messages · bulletins · browse · moving · my account
Callsign:
Show:

Loading message packets...

APRS messages are stored for 14 days. It is possible to search using wildcards (*?) after a prefix.

2019-04-25 23:33:47 EDT: KM6GNH>APRSPRO: S002R05IICAgREVMPzE1NTYyNDk2MjcuNzQ5NjQ=
2019-04-25 23:33:50 EDT: DB0TS-10>DB0TS-9: T#001,000,000,000,000,000,00000000,Test
2019-04-25 23:34:02 EDT: KJ4ERJ-E2>KJ4ERJ-AP: Bad temperature CRCs after 9 good (119~=64) on pin 6 index 1 from:9(159 1 74 70 127 255 1 16 64)
2019-04-25 23:34:07 EDT: KJ4ERJ-E2>KJ4ERJ-AP: CRC Restored after 4 bad (64==64) on pin 6 index 1 from:9(159 1 75 70 127 255 1 16 64)
2019-04-25 23:34:09 EDT: VK2GJ-2>VK2GJ-7: Directs=VK2RHR-1 VK2AMW-1
2019-04-25 23:34:10 EDT: KJ4ERJ-E2>KJ4ERJ-AP: Bad temperature CRCs after 1 good (125~=64) on pin 6 index 1 from:9(159 0 75 70 127 255 1 16 64)
2019-04-25 23:34:11 EDT: N7TAU-3>N7NIX-3: test test
2019-04-25 23:34:13 EDT: KJ4ERJ-E2>KJ4ERJ-AP: CRC Restored after 3 bad (64==64) on pin 6 index 1 from:9(159 1 75 70 127 255 1 16 64)
2019-04-25 23:34:16 EDT: KJ4ERJ-E2>KJ4ERJ-AP: Bad temperature CRCs after 1 good (30~=110) on pin 6 index 1 from:9(160 1 75 70 95 255 16 16 110)
2019-04-25 23:34:19 EDT: KJ4ERJ-E2>KJ4ERJ-AP: CRC Restored after 3 bad (110==110) on pin 6 index 1 from:9(160 1 75 70 127 255 16 16 110)
2019-04-25 23:35:00 EDT: KJ4ERJ-E2>KJ4ERJ-AP: Bad temperature CRCs after 26 good (83~=110) on pin 6 index 1 from:9(160 0 75 70 127 255 16 16 110)
2019-04-25 23:35:01 EDT: KJ4ERJ-E2>KJ4ERJ-AP: CRC Restored after 2 bad (110==110) on pin 6 index 1 from:9(160 1 75 70 127 255 16 16 110)
2019-04-25 23:35:29 EDT: KJ4ERJ-E2>KJ4ERJ-AP: Bad temperature CRCs after 17 good (214~=110) on pin 6 index 1 from:9(160 1 74 70 126 255 16 16 110)
2019-04-25 23:35:31 EDT: KJ4ERJ-E2>KJ4ERJ-AP: CRC Restored after 2 bad (110==110) on pin 6 index 1 from:9(160 1 75 70 127 255 16 16 110)
2019-04-25 23:35:48 EDT: KJ4ERJ-E2>KJ4ERJ-AP: Bad temperature CRCs after 12 good (138~=110) on pin 6 index 1 from:9(160 1 75 70 127 252 16 16 110)
2019-04-25 23:35:50 EDT: KJ4ERJ-E2>KJ4ERJ-AP: CRC Restored after 2 bad (110==110) on pin 6 index 1 from:9(160 1 75 70 127 255 16 16 110)
2019-04-25 23:35:55 EDT: N7QME-2>N7QME: temps 66.5 66.1 68.4 58.1 54.7 55.7 63.1 55.0
2019-04-25 23:36:04 EDT: MTHOOD>N7QME: hum 51 15 61
2019-04-25 23:36:08 EDT: KJ4ERJ-E2>KJ4ERJ-AP: Bad temperature CRCs after 13 good (89~=46) on pin 6 index 1 from:9(160 1 74 70 127 255 16 16 46)
2019-04-25 23:36:10 EDT: KJ4ERJ-E2>KJ4ERJ-AP: CRC Restored after 2 bad (110==110) on pin 6 index 1 from:9(160 1 75 70 127 255 16 16 110)
2019-04-25 23:36:21 EDT: KJ4ERJ-E2>KJ4ERJ-AP: Bad temperature CRCs after 6 good (18~=110) on pin 6 index 1 from:9(160 1 72 70 127 247 16 16 110)
2019-04-25 23:36:25 EDT: KJ4ERJ-E2>KJ4ERJ-AP: CRC Restored after 4 bad (110==110) on pin 6 index 1 from:9(160 1 75 70 127 255 16 16 110)
2019-04-25 23:36:30 EDT: NMWHSW>BOM_WARN: 271400z,BUSHFIRE,NSW_MW003>006
2019-04-25 23:36:30 EDT: NMWHSW>BOMNMW: Hazardous Surf Warning for Macquarie Coast: Smoky Cape to
2019-04-25 23:36:30 EDT: NMWHSW>BOMNMW: Seal Rocks, Hunter Coast: Seal Rocks to Broken Bay, Sydney
2019-04-25 23:36:30 EDT: NMWHSW>BOMNMW: Coast: Broken Bay to Port Hacking and Illawarra Coast: Port
2019-04-25 23:36:30 EDT: NMWHSW>BOMNMW: Hacking to Ulladulla for Saturday
2019-04-25 23:37:02 EDT: KJ4ERJ-E2>KJ4ERJ-AP: Bad temperature CRCs after 21 good (197~=110) on pin 6 index 1 from:9(160 1 75 70 127 254 16 16 110)
2019-04-25 23:37:05 EDT: KJ4ERJ-E2>KJ4ERJ-AP: CRC Restored after 3 bad (110==110) on pin 6 index 1 from:9(160 1 75 70 127 255 16 16 110)
2019-04-25 23:37:08 EDT: KJ4ERJ-E2>KJ4ERJ-AP: Bad temperature CRCs after 1 good (198~=110) on pin 6 index 1 from:9(128 1 75 70 127 255 16 16 110)
2019-04-25 23:37:09 EDT: VK2GJ-2>VK2GJ-7: Directs=VK2RHR-1 VK2AMW-1 VK2BWI-3
2019-04-25 23:37:10 EDT: KJ4ERJ-E2>KJ4ERJ-AP: CRC Restored after 2 bad (110==110) on pin 6 index 1 from:9(160 1 75 70 127 255 16 16 110)
2019-04-25 23:37:30 EDT: KJ4ERJ-E2>KJ4ERJ-AP: Bad temperature CRCs after 13 good (225~=110) on pin 6 index 1 from:9(160 1 75 70 126 255 16 16 110)
2019-04-25 23:37:30 EDT: SHLBTP>SHLBTP: Info - Cabinet Temp = 69.9F Vcc = 13.6V
2019-04-25 23:37:31 EDT: KJ4ERJ-E2>KJ4ERJ-AP: CRC Restored after 2 bad (110==110) on pin 6 index 1 from:9(160 1 75 70 127 255 16 16 110)
2019-04-25 23:37:55 EDT: G0RSQ>G4FKH: A,-100.6,-103.1,-104.5,B,-88,-97.1,-99.3,C,-98.1,-112.1,-113.1,D,-100,-102.6,-103.7,E,-104.1,-112.9,-114.2
2019-04-25 23:37:56 EDT: TAESVR>NWS-WARN: 260345z,SVR_STORM,FLC037-077-129
2019-04-25 23:37:56 EDT: TAESVR>NWS_WARN: 260345z,SVR_STORM,FLC037-077-129
2019-04-25 23:38:21 EDT: KJ4ERJ-E2>KJ4ERJ-AP: Bad temperature CRCs after 28 good (29~=217) on pin 6 index 1 from:9(161 1 75 70 127 255 14 16 217)
2019-04-25 23:38:24 EDT: LU1HVK-1>APRS: lu1hvk@qsl.net Saludos de Leones - Cordoba AR...
2019-04-25 23:38:28 EDT: KJ4ERJ-E2>KJ4ERJ-AP: CRC Restored after 7 bad (217==217) on pin 6 index 1 from:9(161 1 75 70 127 255 15 16 217)
2019-04-25 23:38:38 EDT: KJ4ERJ-E2>KJ4ERJ-AP: Bad temperature CRCs after 6 good (238~=216) on pin 6 index 1 from:9(161 1 74 70 127 255 15 16 216)
2019-04-25 23:38:40 EDT: KJ4ERJ-E2>KJ4ERJ-AP: CRC Restored after 2 bad (217==217) on pin 6 index 1 from:9(161 1 75 70 127 255 15 16 217)
2019-04-25 23:39:02 EDT: KJ4ERJ-E2>KJ4ERJ-AP: Bad temperature CRCs after 12 good (86~=217) on pin 6 index 1 from:9(161 1 75 70 126 255 15 16 217)
2019-04-25 23:39:03 EDT: KJ4ERJ-E2>KJ4ERJ-AP: CRC Restored after 2 bad (217==217) on pin 6 index 1 from:9(161 1 75 70 127 255 15 16 217)
2019-04-25 23:39:10 EDT: KJ4ERJ-E2>KJ4ERJ-AP: Bad temperature CRCs after 4 good (68~=217) on pin 6 index 1 from:9(161 1 75 70 127 255 15 0 217)
2019-04-25 23:39:15 EDT: KJ4ERJ-E2>KJ4ERJ-AP: CRC Restored after 4 bad (217==217) on pin 6 index 1 from:9(161 1 75 70 127 255 15 16 217)
2019-04-25 23:39:39 EDT: KJ4ERJ-E2>KJ4ERJ-AP: Bad temperature CRCs after 14 good (228~=217) on pin 6 index 1 from:9(161 0 75 70 127 255 15 16 217)
2019-04-25 23:39:43 EDT: KJ4ERJ-E2>KJ4ERJ-AP: CRC Restored after 4 bad (217==217) on pin 6 index 1 from:9(161 1 75 70 127 255 15 16 217)
2019-04-25 23:39:50 EDT: KJ4ERJ-E2>KJ4ERJ-AP: Bad temperature CRCs after 3 good (159~=216) on pin 6 index 1 from:9(162 1 74 70 95 255 14 16 216)
< previous
FAQ · Blog · Discussion group · Linking to aprs.fi · AIS sites · Service status · Database statistics · Advertising on aprs.fi · Technical details · API · Change log · Planned changes · Credits and thanks · Terms Of Service · iPhone/iPad APRS